Time,TemperatureF,DewpointF,PressureIn,WindDirection,WindDirectionDegrees,WindSpeedMPH,WindSpeedGustMPH,Humidity,HourlyPrecipIn,Conditions,Clouds,dailyrainin,SoftwareType,DateUTC
2013-02-21 00:11:00,21.0,18.0,30.05,ENE,70,14.0,21.0,85,-99.99,,,-99.99,,2013-02-21 06:11:00,
2013-02-21 00:21:00,21.0,18.0,30.07,ENE,70,14.0,-999.0,85,-99.99,,,-99.99,,2013-02-21 06:21:00,
2013-02-21 00:31:00,21.0,18.0,30.06,ENE,70,14.0,-999.0,85,-99.99,,,-99.99,,2013-02-21 06:31:00,
2013-02-21 00:41:00,21.0,18.0,30.04,ENE,60,16.0,-999.0,85,-99.99,,,-99.99,,2013-02-21 06:41:00,
2013-02-21 00:51:00,21.0,18.0,30.05,ENE,70,12.0,-999.0,85,-99.99,,,-99.99,,2013-02-21 06:51:00,
2013-02-21 01:01:00,21.0,18.0,30.05,ENE,70,12.0,-999.0,85,-99.99,,,-99.99,,2013-02-21 07:01:00,
2013-02-21 01:11:00,21.0,18.0,30.05,ENE,70,13.0,-999.0,85,-99.99,,,-99.99,,2013-02-21 07:11:00,
2013-02-21 01:21:00,21.0,18.0,30.04,ENE,70,10.0,-999.0,85,-99.99,,,-99.99,,2013-02-21 07:21:00,
2013-02-21 01:31:00,21.0,18.0,30.03,ENE,70,14.0,18.0,85,-99.99,,,-99.99,,2013-02-21 07:31:00,
2013-02-21 01:42:00,21.0,18.0,30.02,ENE,60,14.0,18.0,85,-99.99,,,-99.99,,2013-02-21 07:42:00,
2013-02-21 01:52:00,21.0,18.0,30.02,ENE,70,13.0,-999.0,85,-99.99,,,-99.99,,2013-02-21 07:52:00,
2013-02-21 02:01:00,21.0,18.0,30.02,ENE,70,13.0,-999.0,85,-99.99,,,-99.99,,2013-02-21 08:01:00,
2013-02-21 02:11:00,21.0,18.0,30.02,ENE,70,13.0,20.0,85,-99.99,,,-99.99,,2013-02-21 08:11:00,
2013-02-21 02:21:00,21.0,18.0,30.01,ENE,70,14.0,-999.0,85,-99.99,,,-99.99,,2013-02-21 08:21:00,
2013-02-21 02:31:00,21.0,16.0,30.00,ENE,70,14.0,21.0,79,-99.99,,,-99.99,,2013-02-21 08:31:00,
2013-02-21 02:41:00,21.0,16.0,29.99,ENE,70,18.0,-999.0,79,-99.99,,,-99.99,,2013-02-21 08:41:00,
2013-02-21 02:52:00,21.0,16.0,29.99,ENE,70,16.0,-999.0,79,-99.99,,,-99.99,,2013-02-21 08:52:00,
2013-02-21 03:01:00,21.0,16.0,29.99,ENE,70,16.0,-999.0,79,-99.99,,,-99.99,,2013-02-21 09:01:00,
2013-02-21 03:11:00,23.0,16.0,29.99,ENE,70,13.0,-999.0,73,-99.99,,,-99.99,,2013-02-21 09:11:00,
2013-02-21 03:22:00,21.0,16.0,29.97,ENE,70,17.0,22.0,79,-99.99,,,-99.99,,2013-02-21 09:22:00,
2013-02-21 03:31:00,21.0,16.0,29.96,ENE,70,15.0,22.0,79,-99.99,,,-99.99,,2013-02-21 09:31:00,
2013-02-21 03:41:00,21.0,16.0,29.95,ENE,70,16.0,22.0,79,-99.99,,,-99.99,,2013-02-21 09:41:00,
2013-02-21 03:52:00,21.0,16.0,29.94,ENE,60,15.0,22.0,79,-99.99,,,-99.99,,2013-02-21 09:52:00,
2013-02-21 04:01:00,21.0,16.0,29.94,ENE,60,15.0,22.0,79,-99.99,,,-99.99,,2013-02-21 10:01:00,
2013-02-21 04:11:00,21.0,16.0,29.94,ENE,70,18.0,25.0,79,-99.99,,,-99.99,,2013-02-21 10:11:00,
2013-02-21 04:21:00,21.0,18.0,29.94,ENE,70,13.0,20.0,85,-99.99,,,-99.99,,2013-02-21 10:21:00,
2013-02-21 04:31:00,21.0,18.0,29.94,ENE,70,13.0,22.0,85,-99.99,,,-99.99,,2013-02-21 10:31:00,
2013-02-21 04:41:00,21.0,18.0,29.95,ENE,70,15.0,22.0,85,-99.99,,,-99.99,,2013-02-21 10:41:00,
2013-02-21 04:51:00,21.0,18.0,29.94,ENE,70,15.0,-999.0,85,-99.99,,,-99.99,,2013-02-21 10:51:00,
2013-02-21 05:01:00,21.0,18.0,29.94,ENE,70,15.0,-999.0,85,-99.99,,,-99.99,,2013-02-21 11:01:00,
2013-02-21 05:11:00,21.0,18.0,29.94,ENE,70,16.0,-999.0,85,-99.99,,,-99.99,,2013-02-21 11:11:00,
2013-02-21 05:21:00,21.0,18.0,29.94,ENE,70,13.0,-999.0,85,-99.99,,,-99.99,,2013-02-21 11:21:00,
2013-02-21 05:31:00,21.0,18.0,29.93,ENE,70,15.0,-999.0,85,-99.99,,,-99.99,,2013-02-21 11:31:00,
2013-02-21 05:41:00,21.0,18.0,29.94,ENE,70,13.0,-999.0,85,-99.99,,,-99.99,,2013-02-21 11:41:00,
2013-02-21 05:52:00,21.0,18.0,29.94,ENE,70,14.0,-999.0,85,-99.99,,,-99.99,,2013-02-21 11:52:00,
2013-02-21 06:01:00,21.0,18.0,29.94,ENE,70,14.0,-999.0,85,-99.99,,,-99.99,,2013-02-21 12:01:00,
2013-02-21 06:11:00,21.0,18.0,29.92,ENE,60,13.0,-999.0,85,-99.99,,,-99.99,,2013-02-21 12:11:00,
2013-02-21 06:21:00,21.0,18.0,29.93,ENE,60,15.0,-999.0,85,-99.99,,,-99.99,,2013-02-21 12:21:00,
2013-02-21 06:32:00,21.0,18.0,29.92,NE,50,14.0,-999.0,85,-99.99,,,-99.99,,2013-02-21 12:32:00,
2013-02-21 06:42:00,21.0,18.0,29.92,NE,50,16.0,-999.0,85,-99.99,,,-99.99,,2013-02-21 12:42:00,
2013-02-21 06:53:00,21.0,18.0,29.92,NE,50,13.0,-999.0,85,-99.99,,,-99.99,,2013-02-21 12:53:00,
2013-02-21 07:01:00,21.0,18.0,29.92,NE,50,13.0,-999.0,85,-99.99,,,-99.99,,2013-02-21 13:01:00,
2013-02-21 07:12:00,19.0,18.0,29.92,NE,50,14.0,-999.0,92,-99.99,,,-99.99,,2013-02-21 13:12:00,
2013-02-21 07:22:00,19.0,18.0,29.92,NE,50,13.0,-999.0,92,-99.99,,,-99.99,,2013-02-21 13:22:00,
2013-02-21 07:32:00,19.0,18.0,29.93,NE,50,13.0,-999.0,92,-99.99,,,-99.99,,2013-02-21 13:32:00,
2013-02-21 07:41:00,19.0,18.0,29.92,NE,40,13.0,-999.0,92,-99.99,,,-99.99,,2013-02-21 13:41:00,
2013-02-21 07:52:00,19.0,18.0,29.92,NE,40,13.0,18.0,92,-99.99,,,-99.99,,2013-02-21 13:52:00,
2013-02-21 08:02:00,19.0,18.0,29.92,NE,40,13.0,18.0,92,-99.99,,,-99.99,,2013-02-21 14:02:00,
2013-02-21 08:11:00,19.0,18.0,29.91,NNE,30,16.0,-999.0,92,-99.99,,,-99.99,,2013-02-21 14:11:00,
2013-02-21 08:21:00,19.0,18.0,29.91,NE,40,16.0,-999.0,92,-99.99,,,-99.99,,2013-02-21 14:21:00,
2013-02-21 08:32:00,19.0,18.0,29.91,NE,40,15.0,-999.0,92,-99.99,,,-99.99,,2013-02-21 14:32:00,
2013-02-21 08:41:00,19.0,18.0,29.92,NNE,30,13.0,-999.0,92,-99.99,,,-99.99,,2013-02-21 14:41:00,
2013-02-21 08:52:00,19.0,18.0,29.92,NE,40,15.0,21.0,92,-99.99,,,-99.99,,2013-02-21 14:52:00,
2013-02-21 09:01:00,19.0,18.0,29.92,NE,40,15.0,21.0,92,-99.99,,,-99.99,,2013-02-21 15:01:00,
2013-02-21 09:12:00,19.0,18.0,29.91,NNE,20,10.0,-999.0,92,-99.99,,,-99.99,,2013-02-21 15:12:00,
2013-02-21 09:21:00,19.0,18.0,29.91,NNE,20,12.0,-999.0,92,-99.99,,,-99.99,,2013-02-21 15:21:00,
2013-02-21 09:31:00,19.0,18.0,29.91,NNE,20,12.0,-999.0,92,-99.99,,,-99.99,,2013-02-21 15:31:00,
2013-02-21 09:42:00,19.0,18.0,29.90,NNE,30,12.0,-999.0,92,-99.99,,,-99.99,,2013-02-21 15:42:00,
2013-02-21 09:52:00,19.0,18.0,29.90,NNE,20,14.0,-999.0,92,-99.99,,,-99.99,,2013-02-21 15:52:00,
2013-02-21 10:01:00,19.0,18.0,29.90,NNE,20,14.0,-999.0,92,-99.99,,,-99.99,,2013-02-21 16:01:00,
2013-02-21 10:12:00,19.0,18.0,29.89,NNE,20,13.0,-999.0,92,-99.99,,,-99.99,,2013-02-21 16:12:00,
2013-02-21 10:21:00,19.0,18.0,29.89,NNE,20,15.0,-999.0,92,-99.99,,,-99.99,,2013-02-21 16:21:00,
2013-02-21 10:32:00,19.0,18.0,29.89,NNE,30,9.0,-999.0,92,-99.99,,,-99.99,,2013-02-21 16:32:00,
2013-02-21 10:42:00,21.0,18.0,29.89,NNE,30,13.0,-999.0,85,-99.99,,,-99.99,,2013-02-21 16:42:00,
2013-02-21 10:52:00,21.0,18.0,29.89,NNE,30,16.0,-999.0,85,-99.99,,,-99.99,,2013-02-21 16:52:00,
2013-02-21 11:01:00,21.0,18.0,29.89,NNE,30,16.0,-999.0,85,-99.99,,,-99.99,,2013-02-21 17:01:00,
2013-02-21 11:11:00,21.0,18.0,29.88,NNE,30,14.0,-999.0,85,-99.99,,,-99.99,,2013-02-21 17:11:00,
2013-02-21 11:21:00,21.0,18.0,29.87,NE,40,17.0,-999.0,85,-99.99,,,-99.99,,2013-02-21 17:21:00,
2013-02-21 11:32:00,21.0,18.0,29.87,NE,40,14.0,-999.0,85,-99.99,,,-99.99,,2013-02-21 17:32:00,
2013-02-21 11:42:00,21.0,19.0,29.87,NNE,30,15.0,21.0,92,-99.99,,,-99.99,,2013-02-21 17:42:00,
2013-02-21 11:52:00,21.0,18.0,29.86,NNE,30,20.0,-999.0,85,-99.99,,,-99.99,,2013-02-21 17:52:00,
2013-02-21 12:01:00,21.0,18.0,29.86,NNE,30,20.0,-999.0,85,-99.99,,,-99.99,,2013-02-21 18:01:00,
2013-02-21 12:11:00,21.0,18.0,29.86,NE,40,20.0,23.0,85,-99.99,,,-99.99,,2013-02-21 18:11:00,
2013-02-21 12:22:00,21.0,18.0,29.84,NNE,30,20.0,24.0,85,-99.99,,,-99.99,,2013-02-21 18:22:00,
2013-02-21 12:31:00,21.0,18.0,29.82,NNE,30,20.0,-999.0,85,-99.99,,,-99.99,,2013-02-21 18:31:00,
2013-02-21 12:42:00,21.0,18.0,29.82,NE,40,18.0,-999.0,85,-99.99,,,-99.99,,2013-02-21 18:42:00,
2013-02-21 12:52:00,21.0,18.0,29.82,NNE,30,17.0,23.0,85,-99.99,,,-99.99,,2013-02-21 18:52:00,
2013-02-21 13:01:00,21.0,18.0,29.82,NNE,30,17.0,23.0,85,-99.99,,,-99.99,,2013-02-21 19:01:00,
2013-02-21 13:11:00,21.0,18.0,29.81,NNE,30,20.0,25.0,85,-99.99,,,-99.99,,2013-02-21 19:11:00,
2013-02-21 13:21:00,21.0,18.0,29.82,NE,40,17.0,-999.0,85,-99.99,,,-99.99,,2013-02-21 19:21:00,
2013-02-21 13:31:00,21.0,18.0,29.82,NNE,30,17.0,-999.0,85,-99.99,,,-99.99,,2013-02-21 19:31:00,
2013-02-21 13:41:00,21.0,18.0,29.82,NNE,30,15.0,-999.0,85,-99.99,,,-99.99,,2013-02-21 19:41:00,
2013-02-21 13:52:00,21.0,18.0,29.82,NNE,30,15.0,-999.0,85,-99.99,,,-99.99,,2013-02-21 19:52:00,
2013-02-21 14:01:00,21.0,18.0,29.82,NNE,30,15.0,-999.0,85,-99.99,,,-99.99,,2013-02-21 20:01:00,
2013-02-21 14:11:00,21.0,19.0,29.81,NNE,30,16.0,20.0,92,-99.99,,,-99.99,,2013-02-21 20:11:00,
2013-02-21 14:21:00,21.0,19.0,29.81,NNE,30,14.0,-999.0,92,-99.99,,,-99.99,,2013-02-21 20:21:00,
2013-02-21 14:31:00,21.0,19.0,29.80,NNE,30,13.0,-999.0,92,-99.99,,,-99.99,,2013-02-21 20:31:00,
2013-02-21 14:41:00,21.0,19.0,29.80,NNE,30,14.0,-999.0,92,-99.99,,,-99.99,,2013-02-21 20:41:00,
2013-02-21 14:53:00,21.0,18.0,29.79,NNE,30,12.0,-999.0,85,-99.99,,,-99.99,,2013-02-21 20:53:00,
2013-02-21 15:02:00,21.0,18.0,29.79,NNE,30,12.0,-999.0,85,-99.99,,,-99.99,,2013-02-21 21:02:00,
2013-02-21 15:11:00,21.0,19.0,29.79,NNE,30,14.0,17.0,92,-99.99,,,-99.99,,2013-02-21 21:11:00,
2013-02-21 15:21:00,21.0,19.0,29.79,NNE,30,10.0,-999.0,92,-99.99,,,-99.99,,2013-02-21 21:21:00,
2013-02-21 15:31:00,21.0,19.0,29.78,NNE,30,14.0,18.0,92,-99.99,,,-99.99,,2013-02-21 21:31:00,
2013-02-21 15:42:00,21.0,19.0,29.78,NNE,20,12.0,18.0,92,-99.99,,,-99.99,,2013-02-21 21:42:00,
2013-02-21 15:52:00,21.0,19.0,29.78,NNE,30,12.0,-999.0,92,-99.99,,,-99.99,,2013-02-21 21:52:00,
2013-02-21 16:01:00,21.0,19.0,29.78,NNE,30,12.0,-999.0,92,-99.99,,,-99.99,,2013-02-21 22:01:00,
2013-02-21 16:11:00,23.0,19.0,29.78,NNE,20,13.0,-999.0,85,-99.99,,,-99.99,,2013-02-21 22:11:00,
2013-02-21 16:21:00,23.0,19.0,29.78,NNE,20,10.0,-999.0,85,-99.99,,,-99.99,,2013-02-21 22:21:00,
2013-02-21 16:31:00,21.0,19.0,29.78,NNE,20,12.0,-999.0,92,-99.99,,,-99.99,,2013-02-21 22:31:00,
2013-02-21 16:41:00,21.0,19.0,29.78,NNE,20,12.0,-999.0,92,-99.99,,,-99.99,,2013-02-21 22:41:00,
2013-02-21 16:52:00,21.0,19.0,29.78,NNE,20,9.0,-999.0,92,-99.99,,,-99.99,,2013-02-21 22:52:00,
2013-02-21 17:01:00,21.0,19.0,29.78,NNE,20,9.0,-999.0,92,-99.99,,,-99.99,,2013-02-21 23:01:00,
2013-02-21 17:11:00,21.0,19.0,29.79,NNE,20,8.0,-999.0,92,-99.99,,,-99.99,,2013-02-21 23:11:00,
2013-02-21 17:21:00,21.0,19.0,29.79,North,10,8.0,-999.0,92,-99.99,,,-99.99,,2013-02-21 23:21:00,
2013-02-21 17:31:00,21.0,19.0,29.79,North,10,8.0,-999.0,92,-99.99,,,-99.99,,2013-02-21 23:31:00,
2013-02-21 17:41:00,21.0,19.0,29.79,North,360,8.0,-999.0,92,-99.99,,,-99.99,,2013-02-21 23:41:00,
2013-02-21 17:52:00,21.0,19.0,29.80,North,360,9.0,-999.0,92,-99.99,,,-99.99,,2013-02-21 23:52:00,
2013-02-21 18:01:00,21.0,19.0,29.80,North,360,9.0,-999.0,92,-99.99,,,-99.99,,2013-02-22 00:01:00,
2013-02-21 18:11:00,21.0,19.0,29.80,North,360,9.0,-999.0,92,-99.99,,,-99.99,,2013-02-22 00:11:00,
2013-02-21 18:21:00,21.0,19.0,29.80,North,360,10.0,-999.0,92,-99.99,,,-99.99,,2013-02-22 00:21:00,
2013-02-21 18:31:00,21.0,19.0,29.80,North,350,8.0,-999.0,92,-99.99,,,-99.99,,2013-02-22 00:31:00,
2013-02-21 18:41:00,21.0,19.0,29.80,North,350,9.0,-999.0,92,-99.99,,,-99.99,,2013-02-22 00:41:00,
2013-02-21 18:52:00,21.0,19.0,29.81,North,350,8.0,-999.0,92,-99.99,,,-99.99,,2013-02-22 00:52:00,
2013-02-21 19:01:00,21.0,19.0,29.81,North,350,8.0,-999.0,92,-99.99,,,-99.99,,2013-02-22 01:01:00,
2013-02-21 19:11:00,21.0,19.0,29.81,North,350,10.0,-999.0,92,-99.99,,,-99.99,,2013-02-22 01:11:00,
2013-02-21 19:21:00,21.0,19.0,29.82,North,350,9.0,-999.0,92,-99.99,,,-99.99,,2013-02-22 01:21:00,
2013-02-21 19:32:00,21.0,19.0,29.82,NNW,340,10.0,-999.0,92,-99.99,,,-99.99,,2013-02-22 01:32:00,
2013-02-21 19:42:00,21.0,19.0,29.82,North,350,10.0,-999.0,92,-99.99,,,-99.99,,2013-02-22 01:42:00,
2013-02-21 19:52:00,21.0,18.0,29.82,NNW,340,12.0,-999.0,85,-99.99,,,-99.99,,2013-02-22 01:52:00,
2013-02-21 20:02:00,21.0,18.0,29.82,NNW,340,12.0,-999.0,85,-99.99,,,-99.99,,2013-02-22 02:02:00,
2013-02-21 20:11:00,21.0,18.0,29.82,North,350,13.0,-999.0,85,-99.99,,,-99.99,,2013-02-22 02:11:00,
2013-02-21 20:21:00,21.0,18.0,29.82,NNW,340,13.0,-999.0,85,-99.99,,,-99.99,,2013-02-22 02:21:00,
2013-02-21 20:31:00,21.0,18.0,29.82,NNW,340,12.0,-999.0,85,-99.99,,,-99.99,,2013-02-22 02:31:00,
2013-02-21 20:42:00,21.0,18.0,29.82,NNW,340,13.0,17.0,85,-99.99,,,-99.99,,2013-02-22 02:42:00,
2013-02-21 20:52:00,21.0,18.0,29.83,North,350,13.0,-999.0,85,-99.99,,,-99.99,,2013-02-22 02:52:00,
2013-02-21 21:01:00,21.0,18.0,29.83,North,350,13.0,-999.0,85,-99.99,,,-99.99,,2013-02-22 03:01:00,
2013-02-21 21:11:00,21.0,18.0,29.83,North,350,12.0,-999.0,85,-99.99,,,-99.99,,2013-02-22 03:11:00,
2013-02-21 21:21:00,21.0,18.0,29.84,NNW,340,12.0,-999.0,85,-99.99,,,-99.99,,2013-02-22 03:21:00,
2013-02-21 21:31:00,21.0,18.0,29.84,NNW,340,12.0,-999.0,85,-99.99,,,-99.99,,2013-02-22 03:31:00,
2013-02-21 21:41:00,19.0,18.0,29.84,NNW,340,13.0,-999.0,92,-99.99,,,-99.99,,2013-02-22 03:41:00,
2013-02-21 21:52:00,21.0,18.0,29.84,NNW,330,13.0,-999.0,85,-99.99,,,-99.99,,2013-02-22 03:52:00,
2013-02-21 22:01:00,21.0,18.0,29.84,NNW,330,13.0,-999.0,85,-99.99,,,-99.99,,2013-02-22 04:01:00,
2013-02-21 22:11:00,19.0,18.0,29.85,NNW,330,12.0,-999.0,92,-99.99,,,-99.99,,2013-02-22 04:11:00,
2013-02-21 22:21:00,19.0,16.0,29.84,NNW,330,13.0,-999.0,85,-99.99,,,-99.99,,2013-02-22 04:21:00,
2013-02-21 22:32:00,19.0,16.0,29.85,NNW,330,12.0,-999.0,85,-99.99,,,-99.99,,2013-02-22 04:32:00,
2013-02-21 22:42:00,19.0,16.0,29.85,NNW,330,13.0,-999.0,85,-99.99,,,-99.99,,2013-02-22 04:42:00,
2013-02-21 22:52:00,19.0,16.0,29.86,NNW,330,13.0,-999.0,85,-99.99,,,-99.99,,2013-02-22 04:52:00,
2013-02-21 23:01:00,19.0,16.0,29.86,NNW,330,13.0,-999.0,85,-99.99,,,-99.99,,2013-02-22 05:01:00,
2013-02-21 23:12:00,16.0,12.0,29.86,NW,320,10.0,-999.0,85,-99.99,,,-99.99,,2013-02-22 05:12:00,
2013-02-21 23:22:00,16.0,12.0,29.86,NW,320,12.0,-999.0,85,-99.99,,,-99.99,,2013-02-22 05:22:00,
2013-02-21 23:32:00,16.0,12.0,29.87,NW,320,10.0,-999.0,85,-99.99,,,-99.99,,2013-02-22 05:32:00,
2013-02-21 23:41:00,16.0,12.0,29.87,NW,310,10.0,-999.0,85,-99.99,,,-99.99,,2013-02-22 05:41:00,
2013-02-21 23:52:00,14.0,10.0,29.88,NW,310,8.0,-999.0,85,-99.99,,,-99.99,,2013-02-22 05:52:00,